Change the Weather History Date:

Thursday, October 1, 2009

  Actual Average Record
Temperature  
Mean Temperature 55 °F 61 °F  
Max Temperature 68 °F 72 °F 86 °F (1941)
Min Temperature 42 °F 50 °F 29 °F (1895)
Degree Days  
Heating Degree Days 10 5  
Month to date heating degree days 10 5  
Since 1 July heating degree days 33 62  
Cooling Degree Days 0 1  
Month to date cooling degree days 0 1  
Year to date cooling degree days 770 853  
Growing Degree Days 5 (Base 50)    
Moisture  
Dew Point 46 °F    
Average Humidity 76    
Maximum Humidity 100    
Minimum Humidity 52    
Precipitation  
Precipitation 0.00 in 0.11 in 2.05 in (1929)
Month to date precipitation 0.00 0.11  
Year to date precipitation 42.21 35.53  
Snow  
Snow 0.00 in 0.00 in 0.00 in ()
Month to date snowfall 0.0 0.0  
Since 1 July snowfall 0.0 0.0  
Since 1 September snowfall 0.0 0.0  
Snow Depth 0.00 in    
Sea Level Pressure  
Sea Level Pressure 30.06 in    
Wind  
Wind Speed 4 mph (WSW)    
Max Wind Speed 12 mph    
Max Gust Speed 14 mph    
Visibility 6 miles    
Events Fog    
T = Trace of Precipitation, MM = Missing Value Source: NWS Daily Summary

Daily Weather History Graph

Daily Weather History Graph

Search for Another Location

Airport or City:

Trip Planner

Search our weather history database for the weather conditions in past years. The results will help you decide how hot, cold, wet, or windy it might be!

Date:

Astronomy

Oct. 01, 2009 Rise Set
Actual Time 7:25 AM EDT 7:13 PM EDT
Civil Twilight 6:59 AM EDT 7:39 PM EDT
Nautical Twilight 6:30 AM EDT 8:08 PM EDT
Astronomical Twilight 6:00 AM EDT 8:38 PM EDT
Moon 5:45 PM EDT (10/1) 4:50 AM EDT (10/1)
Length of Visible Light 12h 39m
Length of Day
11h 48m
Waxing Gibbous, 93% of the Moon is Illuminated
Oct 1
Waxing Gibbous
Oct 4
Full
Oct 11
Last Quarter
Oct 18
New
Oct 25
First Quarter

Hourly Weather History & Observations

Time (EDT) Temp. Windchill Dew Point Humidity Pressure Visibility Wind Dir Wind Speed Gust Speed Precip Events Conditions
12:54 AM 50.0 °F - 46.0 °F 86% 30.06 in 10.0 mi NNW 4.6 mph - N/A   Mostly Cloudy
1:54 AM 46.9 °F - 44.1 °F 90% 30.07 in 10.0 mi Calm Calm - N/A   Clear
2:54 AM 48.0 °F - 46.0 °F 93% 30.05 in 10.0 mi Calm Calm - N/A   Overcast
3:54 AM 46.9 °F - 45.0 °F 93% 30.05 in 10.0 mi Calm Calm - N/A   Overcast
4:54 AM 44.1 °F 41.5 °F 43.0 °F 96% 30.06 in 7.0 mi NW 4.6 mph - N/A   Clear
5:41 AM 44.6 °F 42.2 °F 42.8 °F 93% 30.10 in 8.0 mi NNW 4.6 mph - N/A   Scattered Clouds
5:50 AM 44.6 °F 41.4 °F 42.8 °F 93% 30.09 in 6.0 mi NNW 5.8 mph - N/A   Mostly Cloudy
5:54 AM 44.1 °F 42.5 °F 43.0 °F 96% 30.07 in 5.0 mi North 3.5 mph - N/A   Mostly Cloudy
6:00 AM 44.6 °F 43.1 °F 44.6 °F 100% 30.09 in 1.8 mi North 3.5 mph - N/A   Overcast
6:04 AM 44.6 °F 42.2 °F 44.6 °F 100% 30.09 in 0.8 mi NNW 4.6 mph - N/A   Overcast
6:15 AM 42.8 °F - 42.8 °F 100% 30.09 in 1.0 mi Calm Calm - N/A   Overcast
6:27 AM 42.8 °F 41.1 °F 42.8 °F 100% 30.10 in 0.5 mi NW 3.5 mph - N/A Fog Fog
6:47 AM 42.8 °F 41.1 °F 42.8 °F 100% 30.10 in 0.2 mi WNW 3.5 mph - N/A Fog Fog
6:54 AM 42.1 °F 40.2 °F 42.1 °F 100% 30.08 in 0.2 mi NW 3.5 mph - N/A Fog Fog
7:05 AM 42.8 °F 41.1 °F 42.8 °F 100% 30.10 in 0.2 mi WNW 3.5 mph - N/A Fog Fog
7:16 AM 42.8 °F 41.1 °F 42.8 °F 100% 30.10 in 0.2 mi WNW 3.5 mph - N/A Fog Fog
7:47 AM 42.8 °F - 42.8 °F 100% 30.11 in 0.2 mi Calm Calm - N/A Fog Fog
7:54 AM 43.0 °F - 43.0 °F 100% 30.10 in 0.2 mi Calm Calm - N/A Fog Fog
8:09 AM 44.6 °F - 42.8 °F 93% 30.11 in 0.2 mi Calm Calm - N/A Fog Fog
8:54 AM 45.0 °F - 45.0 °F 100% 30.11 in 0.2 mi Calm Calm - N/A Fog Fog
9:54 AM 46.0 °F 44.8 °F 46.0 °F 100% 30.11 in 0.2 mi Variable 3.5 mph - N/A Fog Fog
10:05 AM 46.4 °F 45.2 °F 46.4 °F 100% 30.12 in 1.0 mi SSE 3.5 mph - N/A   Overcast
10:08 AM 46.4 °F 45.2 °F 46.4 °F 100% 30.12 in 2.0 mi South 3.5 mph - N/A   Overcast
10:15 AM 46.4 °F - 46.4 °F 100% 30.12 in 5.0 mi Calm Calm - N/A   Mostly Cloudy
10:28 AM 48.2 °F - 46.4 °F 93% 30.12 in 8.0 mi Variable 3.5 mph - N/A   Partly Cloudy
10:54 AM 55.0 °F - 46.9 °F 74% 30.08 in 10.0 mi SSE 6.9 mph - N/A   Partly Cloudy
11:54 AM 59.0 °F - 48.0 °F 67% 30.07 in 10.0 mi Variable 3.5 mph - N/A   Clear
12:54 PM 63.0 °F - 48.0 °F 58% 30.04 in 10.0 mi South 6.9 mph - N/A   Clear
1:54 PM 64.9 °F - 48.0 °F 54% 30.03 in 10.0 mi Variable 6.9 mph - N/A   Clear
2:54 PM 66.0 °F - 48.9 °F 54% 30.00 in 10.0 mi Calm Calm - N/A   Clear
3:54 PM 68.0 °F - 50.0 °F 52% 29.99 in 10.0 mi Variable 5.8 mph - N/A   Clear
4:54 PM 68.0 °F - 51.1 °F 55% 29.98 in 10.0 mi SE 8.1 mph - N/A   Clear
5:54 PM 66.0 °F - 51.1 °F 59% 29.98 in 10.0 mi SE 9.2 mph - N/A   Clear
6:54 PM 62.1 °F - 51.1 °F 67% 29.99 in 10.0 mi South 4.6 mph - N/A   Clear
7:54 PM 59.0 °F - 52.0 °F 78% 30.00 in 10.0 mi SE 3.5 mph - N/A   Clear
8:54 PM 57.0 °F - 52.0 °F 83% 30.01 in 10.0 mi SE 4.6 mph - N/A   Clear
9:54 PM 55.9 °F - 51.1 °F 84% 30.01 in 10.0 mi SE 5.8 mph - N/A   Clear
10:54 PM 54.0 °F - 51.1 °F 90% 29.99 in 10.0 mi ESE 3.5 mph - N/A   Clear
11:54 PM 53.1 °F - 51.1 °F 93% 29.98 in 10.0 mi ESE 3.5 mph - N/A   Clear